Time,TemperatureF,DewpointF,PressureIn,WindDirection,WindDirectionDegrees,WindSpeedMPH,WindSpeedGustMPH,Humidity,HourlyPrecipIn,Conditions,Clouds,dailyrainin,SoftwareType,DateUTC
2013-02-16 00:02:00,35.7,26.2,27.88,NNE,23,0.0,2.5,68,0.00,,,0.00,WSDL version 420,2013-02-16 05:02:00,
2013-02-16 00:07:00,35.8,26.4,27.88,NNE,23,0.4,1.1,69,0.00,,,0.00,WSDL version 420,2013-02-16 05:07:00,
2013-02-16 00:12:00,35.8,26.4,27.85,NNE,23,1.1,1.1,68,0.00,,,0.00,WSDL version 420,2013-02-16 05:12:00,
2013-02-16 00:17:00,35.7,26.2,27.85,NNE,23,0.0,1.1,68,0.00,,,0.00,WSDL version 420,2013-02-16 05:17:00,
2013-02-16 00:27:00,35.8,26.3,27.85,NNE,23,0.0,0.0,68,0.00,,,0.00,WSDL version 420,2013-02-16 05:27:00,
2013-02-16 00:32:00,35.8,26.3,27.85,NNE,23,0.0,0.0,68,0.00,,,0.00,WSDL version 420,2013-02-16 05:32:00,
2013-02-16 00:37:00,35.8,26.3,27.85,NNE,23,0.0,0.0,68,0.00,,,0.00,WSDL version 420,2013-02-16 05:37:00,
2013-02-16 00:42:00,35.7,26.2,27.85,NNE,23,0.0,0.0,68,0.00,,,0.00,WSDL version 420,2013-02-16 05:42:00,
2013-02-16 00:47:00,35.5,26.0,27.85,NNE,23,1.0,1.3,68,0.00,,,0.00,WSDL version 420,2013-02-16 05:47:00,
2013-02-16 00:52:00,35.8,26.3,27.85,NNE,23,1.1,1.6,68,0.00,,,0.00,WSDL version 420,2013-02-16 05:52:00,
2013-02-16 00:57:00,35.5,26.0,27.85,NNE,23,0.4,1.6,68,0.00,,,0.00,WSDL version 420,2013-02-16 05:57:00,
2013-02-16 01:02:00,35.3,25.8,27.85,NNE,23,0.0,1.3,68,0.00,,,0.00,WSDL version 420,2013-02-16 06:02:00,
2013-02-16 01:07:00,35.2,25.7,27.85,NNE,23,0.0,1.1,68,0.00,,,0.00,WSDL version 420,2013-02-16 06:07:00,
2013-02-16 01:12:00,35.2,26.1,27.85,NNE,23,0.0,0.0,69,0.00,,,0.00,WSDL version 420,2013-02-16 06:12:00,
2013-02-16 01:17:00,35.4,26.3,27.85,NNE,23,0.9,0.9,69,0.00,,,0.00,WSDL version 420,2013-02-16 06:17:00,
2013-02-16 01:22:00,35.4,26.3,27.85,NNE,23,0.0,0.9,69,0.00,,,0.00,WSDL version 420,2013-02-16 06:22:00,
2013-02-16 01:27:00,35.4,26.3,27.85,NNE,23,0.0,0.0,69,0.00,,,0.00,WSDL version 420,2013-02-16 06:27:00,
2013-02-16 01:32:00,35.6,26.1,27.85,NNE,23,0.0,0.0,68,0.00,,,0.00,WSDL version 420,2013-02-16 06:32:00,
2013-02-16 01:37:00,35.4,26.3,27.82,NNE,23,0.0,0.0,69,0.00,,,0.00,WSDL version 420,2013-02-16 06:37:00,
2013-02-16 01:42:00,35.5,26.2,27.82,NNE,23,0.0,0.0,69,0.00,,,0.00,WSDL version 420,2013-02-16 06:42:00,
2013-02-16 01:47:00,35.4,26.3,27.82,NNE,23,1.2,1.3,69,0.00,,,0.00,WSDL version 420,2013-02-16 06:47:00,
2013-02-16 01:52:00,35.4,26.3,27.82,NNE,23,0.0,1.3,69,0.00,,,0.00,WSDL version 420,2013-02-16 06:52:00,
2013-02-16 01:57:00,35.2,26.0,27.82,NNE,23,0.0,1.3,69,0.00,,,0.00,WSDL version 420,2013-02-16 06:57:00,
2013-02-16 02:02:00,35.2,26.1,27.82,NNE,23,0.0,1.1,69,0.00,,,0.00,WSDL version 420,2013-02-16 07:02:00,
2013-02-16 02:07:00,35.2,26.0,27.82,NNE,23,0.0,0.0,69,0.00,,,0.00,WSDL version 420,2013-02-16 07:07:00,
2013-02-16 02:12:00,35.1,25.7,27.82,NNE,23,0.0,0.0,68,0.00,,,0.00,WSDL version 420,2013-02-16 07:12:00,
2013-02-16 02:17:00,35.1,25.6,27.82,NNE,23,0.0,0.9,68,0.00,,,0.00,WSDL version 420,2013-02-16 07:17:00,
2013-02-16 02:22:00,35.1,25.6,27.82,NNE,23,0.0,0.9,68,0.00,,,0.00,WSDL version 420,2013-02-16 07:22:00,
2013-02-16 02:27:00,34.9,25.4,27.82,NNE,23,0.0,0.9,68,0.00,,,0.00,WSDL version 420,2013-02-16 07:27:00,
2013-02-16 02:32:00,34.9,25.4,27.82,NNE,23,0.0,0.0,68,0.00,,,0.00,WSDL version 420,2013-02-16 07:32:00,
2013-02-16 02:37:00,34.3,24.9,27.82,NNE,23,0.3,1.1,68,0.00,,,0.00,WSDL version 420,2013-02-16 07:37:00,
2013-02-16 02:42:00,34.2,24.7,27.82,NNE,23,0.6,1.1,68,0.00,,,0.00,WSDL version 420,2013-02-16 07:42:00,
2013-02-16 02:47:00,34.0,24.5,27.82,NNE,23,0.0,1.3,68,0.00,,,0.00,WSDL version 420,2013-02-16 07:47:00,
2013-02-16 02:52:00,34.1,24.6,27.82,NNE,23,0.0,1.3,68,0.00,,,0.00,WSDL version 420,2013-02-16 07:52:00,
2013-02-16 02:57:00,34.2,24.8,27.82,NNE,23,0.0,0.0,68,0.00,,,0.00,WSDL version 420,2013-02-16 07:57:00,
2013-02-16 03:02:00,34.2,24.7,27.82,NNE,23,0.2,0.9,68,0.00,,,0.00,WSDL version 420,2013-02-16 08:02:00,
2013-02-16 03:07:00,33.9,24.4,27.79,NNE,23,0.3,1.3,68,0.00,,,0.00,WSDL version 420,2013-02-16 08:07:00,
2013-02-16 03:12:00,33.9,24.4,27.79,NNE,23,0.0,1.3,68,0.00,,,0.00,WSDL version 420,2013-02-16 08:12:00,
2013-02-16 03:17:00,33.8,24.3,27.79,NNE,23,0.0,0.0,67,0.00,,,0.00,WSDL version 420,2013-02-16 08:17:00,
2013-02-16 03:22:00,33.7,24.3,27.79,NNE,23,0.0,0.0,68,0.00,,,0.00,WSDL version 420,2013-02-16 08:22:00,
2013-02-16 03:27:00,33.9,24.5,27.79,NNE,23,0.0,0.0,68,0.00,,,0.00,WSDL version 420,2013-02-16 08:27:00,
2013-02-16 03:32:00,33.9,24.5,27.79,NNE,23,0.0,0.0,68,0.00,,,0.00,WSDL version 420,2013-02-16 08:32:00,
2013-02-16 03:37:00,33.9,24.4,27.79,NNE,23,1.4,2.0,68,0.00,,,0.00,WSDL version 420,2013-02-16 08:37:00,
2013-02-16 03:42:00,33.8,24.4,27.79,NNE,23,0.6,2.0,68,0.00,,,0.00,WSDL version 420,2013-02-16 08:42:00,
2013-02-16 03:47:00,33.8,24.7,27.79,NNE,23,0.6,0.9,69,0.00,,,0.00,WSDL version 420,2013-02-16 08:47:00,
2013-02-16 03:52:00,33.7,24.6,27.79,NNE,23,0.0,1.1,69,0.00,,,0.00,WSDL version 420,2013-02-16 08:52:00,
2013-02-16 03:57:00,33.8,24.6,27.79,NNE,23,0.0,1.1,68,0.00,,,0.00,WSDL version 420,2013-02-16 08:57:00,
2013-02-16 04:02:00,33.8,24.4,27.79,NNE,23,0.0,0.0,68,0.00,,,0.00,WSDL version 420,2013-02-16 09:02:00,
2013-02-16 04:07:00,33.8,24.4,27.79,NNE,23,1.0,1.1,68,0.00,,,0.00,WSDL version 420,2013-02-16 09:07:00,
2013-02-16 04:12:00,33.9,24.8,27.79,NNE,23,0.0,1.1,69,0.00,,,0.00,WSDL version 420,2013-02-16 09:12:00,
2013-02-16 04:17:00,33.9,24.8,27.79,NNE,23,0.0,0.9,69,-99.99,,,-99.99,WSDL version 420,2013-02-16 09:17:00,
2013-02-16 04:22:00,33.9,24.8,27.79,NNE,23,0.4,1.1,69,0.00,,,0.00,WSDL version 420,2013-02-16 09:22:00,
2013-02-16 04:27:00,33.8,24.7,27.79,NNE,23,0.0,1.1,69,0.00,,,0.00,WSDL version 420,2013-02-16 09:27:00,
2013-02-16 04:32:00,33.8,24.4,27.79,NNE,23,0.0,1.3,68,0.00,,,0.00,WSDL version 420,2013-02-16 09:32:00,
2013-02-16 04:37:00,33.8,24.4,27.79,NNE,23,0.0,1.3,68,0.00,,,0.00,WSDL version 420,2013-02-16 09:37:00,
2013-02-16 04:42:00,33.8,24.5,27.79,NNE,23,0.0,0.0,69,0.00,,,0.00,WSDL version 420,2013-02-16 09:42:00,
2013-02-16 04:47:00,33.8,24.7,27.79,NNE,23,0.0,0.0,69,0.00,,,0.00,WSDL version 420,2013-02-16 09:47:00,
2013-02-16 04:52:00,33.8,24.7,27.79,NNE,23,0.0,1.3,69,0.00,,,0.00,WSDL version 420,2013-02-16 09:52:00,
2013-02-16 04:57:00,34.0,24.9,27.79,NNE,23,0.0,1.3,69,0.00,,,0.00,WSDL version 420,2013-02-16 09:57:00,
2013-02-16 05:02:00,34.0,24.9,27.79,NNE,23,0.0,0.0,69,0.00,,,0.00,WSDL version 420,2013-02-16 10:02:00,
2013-02-16 05:07:00,34.0,24.8,27.79,NNE,23,0.0,0.0,68,0.00,,,0.00,WSDL version 420,2013-02-16 10:07:00,
2013-02-16 05:12:00,33.9,24.4,27.79,NNE,23,0.0,0.0,68,0.00,,,0.00,WSDL version 420,2013-02-16 10:12:00,
2013-02-16 05:17:00,33.6,24.2,27.79,NNE,23,0.0,1.1,68,0.00,,,0.00,WSDL version 420,2013-02-16 10:17:00,
2013-02-16 05:22:00,33.6,24.2,27.79,NNE,23,0.3,1.1,68,0.00,,,0.00,WSDL version 420,2013-02-16 10:22:00,
2013-02-16 05:27:00,33.6,24.1,27.79,NNE,23,0.0,1.1,68,0.00,,,0.00,WSDL version 420,2013-02-16 10:27:00,
2013-02-16 05:32:00,33.4,24.0,27.79,NNE,23,0.0,1.3,68,0.00,,,0.00,WSDL version 420,2013-02-16 10:32:00,
2013-02-16 05:37:00,33.4,24.0,27.79,NNE,23,0.0,1.3,68,0.00,,,0.00,WSDL version 420,2013-02-16 10:37:00,
2013-02-16 05:42:00,33.4,23.7,27.79,NNE,23,0.0,1.1,67,0.00,,,0.00,WSDL version 420,2013-02-16 10:42:00,
2013-02-16 05:47:00,33.3,23.5,27.79,NNE,23,0.3,1.1,67,0.00,,,0.00,WSDL version 420,2013-02-16 10:47:00,
2013-02-16 05:52:00,33.2,23.4,27.79,NNE,23,0.0,1.1,67,0.00,,,0.00,WSDL version 420,2013-02-16 10:52:00,
2013-02-16 05:57:00,33.1,23.3,27.79,NNE,23,0.0,1.1,67,0.00,,,0.00,WSDL version 420,2013-02-16 10:57:00,
2013-02-16 06:02:00,33.1,23.1,27.79,NNE,23,0.0,0.0,66,0.00,,,0.00,WSDL version 420,2013-02-16 11:02:00,
2013-02-16 06:07:00,33.0,22.9,27.76,NNE,23,0.4,0.9,66,-99.99,,,-99.99,WSDL version 420,2013-02-16 11:07:00,
2013-02-16 06:12:00,32.9,22.6,27.76,NNE,23,0.7,1.3,65,0.00,,,0.00,WSDL version 420,2013-02-16 11:12:00,
2013-02-16 06:17:00,32.9,22.3,27.76,NNE,23,0.0,1.3,64,0.00,,,0.00,WSDL version 420,2013-02-16 11:17:00,
2013-02-16 06:22:00,32.9,22.1,27.79,NNE,23,0.0,0.9,64,0.00,,,0.00,WSDL version 420,2013-02-16 11:22:00,
2013-02-16 06:27:00,32.7,21.9,27.79,NNE,23,0.9,1.6,64,0.00,,,0.00,WSDL version 420,2013-02-16 11:27:00,
2013-02-16 06:32:00,32.7,21.6,27.79,NNE,23,0.0,1.6,63,0.00,,,0.00,WSDL version 420,2013-02-16 11:32:00,
2013-02-16 06:37:00,32.6,21.4,27.79,NNE,23,0.4,1.1,63,0.00,,,0.00,WSDL version 420,2013-02-16 11:37:00,
2013-02-16 06:42:00,32.5,21.4,27.79,NNE,23,0.5,1.6,63,0.00,,,0.00,WSDL version 420,2013-02-16 11:42:00,
2013-02-16 06:47:00,32.2,21.1,27.79,NNE,23,0.2,1.6,63,0.00,,,0.00,WSDL version 420,2013-02-16 11:47:00,
2013-02-16 06:52:00,32.2,21.4,27.79,NNE,23,0.0,0.9,64,0.00,,,0.00,WSDL version 420,2013-02-16 11:52:00,
2013-02-16 06:57:00,32.0,22.4,27.79,NNE,23,0.0,0.0,64,0.00,,,0.00,WSDL version 420,2013-02-16 11:57:00,
2013-02-16 07:02:00,31.8,22.3,27.79,NNE,23,0.0,0.0,64,0.00,,,0.00,WSDL version 420,2013-02-16 12:02:00,
2013-02-16 07:07:00,31.7,22.1,27.79,NNE,23,2.3,2.5,64,0.00,,,0.00,WSDL version 420,2013-02-16 12:07:00,
2013-02-16 07:12:00,31.6,22.1,27.76,NNE,23,2.2,2.5,64,0.00,,,0.00,WSDL version 420,2013-02-16 12:12:00,
2013-02-16 07:17:00,31.6,21.9,27.76,NNE,23,0.0,2.2,63,0.00,,,0.00,WSDL version 420,2013-02-16 12:17:00,
2013-02-16 07:22:00,31.8,21.9,27.79,NNE,23,0.0,1.3,63,0.00,,,0.00,WSDL version 420,2013-02-16 12:22:00,
2013-02-16 07:27:00,31.8,21.9,27.79,NNE,23,1.3,2.0,63,0.00,,,0.00,WSDL version 420,2013-02-16 12:27:00,
2013-02-16 07:32:00,31.8,21.6,27.79,NNE,23,0.0,2.0,62,0.00,,,0.00,WSDL version 420,2013-02-16 12:32:00,
2013-02-16 07:37:00,31.9,21.7,27.79,NNE,23,0.0,0.0,62,0.00,,,0.00,WSDL version 420,2013-02-16 12:37:00,
2013-02-16 07:42:00,31.9,21.7,27.79,NNE,23,0.0,1.1,62,0.00,,,0.00,WSDL version 420,2013-02-16 12:42:00,
2013-02-16 07:47:00,31.6,21.4,27.79,NNE,23,0.0,1.1,62,0.00,,,0.00,WSDL version 420,2013-02-16 12:47:00,
2013-02-16 07:52:00,31.8,21.5,27.79,NNE,23,0.0,0.0,62,0.00,,,0.00,WSDL version 420,2013-02-16 12:52:00,
2013-02-16 07:57:00,32.1,20.9,27.79,NNE,23,0.0,0.0,62,0.00,,,0.00,WSDL version 420,2013-02-16 12:57:00,
2013-02-16 08:02:00,32.1,21.2,27.79,NNE,23,1.3,2.0,62,0.00,,,0.00,WSDL version 420,2013-02-16 13:02:00,
2013-02-16 08:07:00,32.0,21.8,27.79,NNE,23,0.0,2.7,62,0.00,,,0.00,WSDL version 420,2013-02-16 13:07:00,
2013-02-16 08:12:00,32.1,21.3,27.79,NNE,23,0.0,2.7,61,0.00,,,0.00,WSDL version 420,2013-02-16 13:12:00,
2013-02-16 08:17:00,32.2,20.5,27.79,NNE,23,0.0,0.9,62,0.00,,,0.00,WSDL version 420,2013-02-16 13:17:00,
2013-02-16 08:22:00,32.2,20.3,27.76,NNE,23,0.0,1.1,61,0.00,,,0.00,WSDL version 420,2013-02-16 13:22:00,
2013-02-16 08:27:00,32.2,20.3,27.76,NNE,23,0.3,1.3,61,0.00,,,0.00,WSDL version 420,2013-02-16 13:27:00,
2013-02-16 08:32:00,32.1,20.6,27.76,NNE,23,0.8,1.3,61,0.00,,,0.00,WSDL version 420,2013-02-16 13:32:00,
2013-02-16 08:37:00,32.3,20.4,27.79,NNE,23,0.4,1.3,61,0.00,,,0.00,WSDL version 420,2013-02-16 13:37:00,
2013-02-16 08:42:00,32.5,20.5,27.79,NNE,23,0.0,1.3,61,0.00,,,0.00,WSDL version 420,2013-02-16 13:42:00,
2013-02-16 08:47:00,32.5,20.6,27.79,NNE,23,0.8,1.3,61,0.00,,,0.00,WSDL version 420,2013-02-16 13:47:00,
2013-02-16 08:52:00,32.5,20.6,27.79,NNE,23,1.2,1.3,61,0.00,,,0.00,WSDL version 420,2013-02-16 13:52:00,
2013-02-16 08:57:00,32.7,20.8,27.79,NNE,23,0.0,1.3,61,0.00,,,0.00,WSDL version 420,2013-02-16 13:57:00,
2013-02-16 09:02:00,32.8,21.3,27.79,NNE,23,0.0,1.1,62,0.00,,,0.00,WSDL version 420,2013-02-16 14:02:00,
2013-02-16 09:07:00,33.1,21.5,27.76,NNE,23,0.6,1.1,62,0.00,,,0.00,WSDL version 420,2013-02-16 14:07:00,
2013-02-16 09:12:00,33.0,21.1,27.76,NNE,23,1.5,2.0,61,0.00,,,0.00,WSDL version 420,2013-02-16 14:12:00,
2013-02-16 09:17:00,32.8,20.8,27.76,NNE,23,2.0,2.5,61,0.00,,,0.00,WSDL version 420,2013-02-16 14:17:00,
2013-02-16 09:22:00,32.7,20.8,27.76,NNE,23,0.0,2.5,61,0.00,,,0.00,WSDL version 420,2013-02-16 14:22:00,
2013-02-16 09:27:00,32.9,20.9,27.76,NNE,23,0.0,2.0,61,0.00,,,0.00,WSDL version 420,2013-02-16 14:27:00,
2013-02-16 09:32:00,32.8,20.5,27.76,NNE,23,0.8,2.5,60,0.00,,,0.00,WSDL version 420,2013-02-16 14:32:00,
2013-02-16 09:37:00,32.7,20.4,27.76,NNE,23,0.6,2.5,60,0.00,,,0.00,WSDL version 420,2013-02-16 14:37:00,
2013-02-16 09:42:00,32.8,20.4,27.76,NNE,23,0.9,2.5,60,0.00,,,0.00,WSDL version 420,2013-02-16 14:42:00,
2013-02-16 09:47:00,32.9,20.5,27.76,NNE,23,0.3,2.5,60,0.00,,,0.00,WSDL version 420,2013-02-16 14:47:00,
2013-02-16 09:52:00,33.1,20.6,27.76,NNE,23,0.0,0.9,59,0.00,,,0.00,WSDL version 420,2013-02-16 14:52:00,
2013-02-16 09:57:00,33.0,20.5,27.76,NNE,23,0.0,0.0,59,0.00,,,0.00,WSDL version 420,2013-02-16 14:57:00,
2013-02-16 10:02:00,33.0,20.2,27.76,NNE,23,0.3,0.9,59,0.00,,,0.00,WSDL version 420,2013-02-16 15:02:00,
2013-02-16 10:07:00,32.9,20.1,27.76,NNE,23,0.0,0.9,59,0.00,,,0.00,WSDL version 420,2013-02-16 15:07:00,
2013-02-16 10:12:00,32.9,20.1,27.76,NNE,23,0.0,1.1,59,0.00,,,0.00,WSDL version 420,2013-02-16 15:12:00,
2013-02-16 10:17:00,32.9,20.1,27.76,NNE,23,0.0,1.1,59,0.00,,,0.00,WSDL version 420,2013-02-16 15:17:00,
2013-02-16 10:22:00,33.0,20.3,27.76,NNE,23,0.0,0.0,59,0.00,,,0.00,WSDL version 420,2013-02-16 15:22:00,
2013-02-16 10:27:00,33.1,20.3,27.76,NNE,23,2.1,2.7,59,0.00,,,0.00,WSDL version 420,2013-02-16 15:27:00,
2013-02-16 10:32:00,33.1,20.3,27.76,NNE,23,1.7,2.7,59,0.00,,,0.00,WSDL version 420,2013-02-16 15:32:00,
2013-02-16 10:37:00,33.0,19.8,27.76,NNE,23,0.0,3.6,58,0.00,,,0.00,WSDL version 420,2013-02-16 15:37:00,
2013-02-16 10:42:00,33.0,19.8,27.76,NNE,23,1.0,3.6,58,0.00,,,0.00,WSDL version 420,2013-02-16 15:42:00,
2013-02-16 10:47:00,33.0,19.9,27.76,NNE,23,0.9,2.2,58,0.00,,,0.00,WSDL version 420,2013-02-16 15:47:00,
2013-02-16 10:52:00,33.1,19.9,27.76,NNE,23,1.1,2.5,58,0.00,,,0.00,WSDL version 420,2013-02-16 15:52:00,
2013-02-16 10:57:00,33.1,19.6,27.76,NNE,23,0.5,2.5,57,0.00,,,0.00,WSDL version 420,2013-02-16 15:57:00,
2013-02-16 11:02:00,33.1,19.6,27.76,NNE,23,0.0,1.6,58,0.00,,,0.00,WSDL version 420,2013-02-16 16:02:00,
2013-02-16 11:07:00,33.0,19.5,27.76,NNE,23,1.8,2.0,57,0.00,,,0.00,WSDL version 420,2013-02-16 16:07:00,
2013-02-16 11:12:00,32.7,19.2,27.76,NNE,23,2.4,2.9,57,0.00,,,0.00,WSDL version 420,2013-02-16 16:12:00,
2013-02-16 11:17:00,32.7,19.2,27.76,NNE,23,0.8,2.9,57,0.00,,,0.00,WSDL version 420,2013-02-16 16:17:00,
2013-02-16 11:22:00,32.8,19.2,27.76,NNE,23,0.3,2.0,57,0.00,,,0.00,WSDL version 420,2013-02-16 16:22:00,
2013-02-16 11:27:00,33.0,19.5,27.76,NNE,23,1.9,2.0,57,0.00,,,0.00,WSDL version 420,2013-02-16 16:27:00,
2013-02-16 11:32:00,33.1,19.6,27.76,ESE,113,0.4,2.0,57,0.00,,,0.00,WSDL version 420,2013-02-16 16:32:00,
2013-02-16 11:37:00,33.2,19.6,27.76,NE,45,0.3,2.0,57,0.00,,,0.00,WSDL version 420,2013-02-16 16:37:00,
2013-02-16 11:42:00,33.1,19.6,27.76,NE,45,1.5,2.7,57,0.00,,,0.00,WSDL version 420,2013-02-16 16:42:00,
2013-02-16 11:47:00,33.0,19.0,27.76,NE,45,0.4,2.7,56,0.00,,,0.00,WSDL version 420,2013-02-16 16:47:00,
2013-02-16 11:52:00,33.0,19.2,27.76,NE,45,2.2,2.7,56,0.00,,,0.00,WSDL version 420,2013-02-16 16:52:00,
2013-02-16 11:57:00,32.8,18.8,27.76,NE,45,1.6,2.5,56,0.00,,,0.00,WSDL version 420,2013-02-16 16:57:00,
2013-02-16 12:02:00,33.0,19.0,27.76,NE,45,2.3,2.7,56,0.00,,,0.00,WSDL version 420,2013-02-16 17:02:00,
2013-02-16 12:07:00,33.0,19.0,27.76,NE,45,1.3,3.1,56,0.00,,,0.00,WSDL version 420,2013-02-16 17:07:00,
2013-02-16 12:12:00,32.9,18.6,27.76,NE,45,0.7,3.1,55,0.00,,,0.00,WSDL version 420,2013-02-16 17:12:00,
2013-02-16 12:17:00,33.0,19.0,27.76,NE,45,0.9,2.0,56,0.00,,,0.00,WSDL version 420,2013-02-16 17:17:00,
2013-02-16 12:22:00,33.1,19.1,27.73,NE,45,0.4,2.0,56,0.00,,,0.00,WSDL version 420,2013-02-16 17:22:00,
2013-02-16 12:27:00,33.0,19.0,27.73,NE,45,2.6,2.9,56,0.00,,,0.00,WSDL version 420,2013-02-16 17:27:00,
2013-02-16 12:32:00,32.6,18.2,27.73,NE,45,1.3,2.9,55,0.00,,,0.00,WSDL version 420,2013-02-16 17:32:00,
2013-02-16 12:37:00,32.4,18.1,27.73,NE,45,3.0,3.1,55,0.00,,,0.00,WSDL version 420,2013-02-16 17:37:00,
2013-02-16 12:42:00,32.5,18.2,27.73,NE,45,1.9,3.1,55,0.00,,,0.00,WSDL version 420,2013-02-16 17:42:00,
2013-02-16 12:47:00,32.7,18.3,27.73,NE,45,2.0,2.9,55,0.00,,,0.00,WSDL version 420,2013-02-16 17:47:00,
2013-02-16 12:52:00,32.8,18.0,27.73,NE,45,1.6,2.9,54,0.00,,,0.00,WSDL version 420,2013-02-16 17:52:00,
2013-02-16 12:57:00,32.9,18.1,27.73,North,353,3.2,3.8,54,0.00,,,0.00,WSDL version 420,2013-02-16 17:57:00,
2013-02-16 13:02:00,32.8,18.0,27.73,North,354,3.5,4.5,54,0.04,,,0.04,WSDL version 420,2013-02-16 18:02:00,
2013-02-16 13:07:00,32.9,17.6,27.73,North,353,4.6,5.4,53,0.04,,,0.04,WSDL version 420,2013-02-16 18:07:00,
2013-02-16 13:12:00,33.9,18.5,27.73,NNW,338,3.4,5.4,53,0.04,,,0.04,WSDL version 420,2013-02-16 18:12:00,
2013-02-16 13:17:00,33.9,18.2,27.73,NNW,338,1.9,4.3,52,0.04,,,0.04,WSDL version 420,2013-02-16 18:17:00,
2013-02-16 13:22:00,34.3,18.5,27.73,West,278,3.3,4.3,52,0.04,,,0.04,WSDL version 420,2013-02-16 18:22:00,
2013-02-16 13:27:00,34.5,18.7,27.73,West,263,2.8,3.6,52,0.04,,,0.04,WSDL version 420,2013-02-16 18:27:00,
2013-02-16 13:32:00,34.0,18.0,27.73,WNW,285,1.9,3.4,51,0.04,,,0.04,WSDL version 420,2013-02-16 18:32:00,
2013-02-16 13:37:00,33.8,17.6,27.73,NNE,15,2.6,3.4,51,0.04,,,0.04,WSDL version 420,2013-02-16 18:37:00,
2013-02-16 13:42:00,33.9,17.7,27.73,North,8,2.3,3.4,51,0.04,,,0.04,WSDL version 420,2013-02-16 18:42:00,
2013-02-16 13:47:00,34.1,17.9,27.73,NW,308,1.9,3.4,51,0.04,,,0.04,WSDL version 420,2013-02-16 18:47:00,
2013-02-16 13:52:00,33.7,17.5,27.73,NNW,338,2.4,3.8,51,0.04,,,0.04,WSDL version 420,2013-02-16 18:52:00,
2013-02-16 13:57:00,33.3,17.1,27.73,West,263,1.3,3.8,51,0.04,,,0.04,WSDL version 420,2013-02-16 18:57:00,
2013-02-16 14:02:00,33.3,16.9,27.73,NNW,338,1.6,3.4,50,0.00,,,0.04,WSDL version 420,2013-02-16 19:02:00,
2013-02-16 14:07:00,33.2,16.5,27.73,NNW,332,2.8,3.1,50,0.00,,,0.04,WSDL version 420,2013-02-16 19:07:00,
2013-02-16 14:12:00,33.1,16.3,27.73,NNW,338,2.5,2.9,49,0.00,,,0.04,WSDL version 420,2013-02-16 19:12:00,
2013-02-16 14:17:00,34.3,17.1,27.73,NW,323,1.3,3.1,49,0.00,,,0.04,WSDL version 420,2013-02-16 19:17:00,
2013-02-16 14:22:00,34.7,17.5,27.73,NNW,338,1.0,3.1,49,0.00,,,0.04,WSDL version 420,2013-02-16 19:22:00,
2013-02-16 14:27:00,34.2,17.1,27.73,NNW,338,2.3,2.9,49,0.00,,,0.04,WSDL version 420,2013-02-16 19:27:00,
2013-02-16 14:32:00,33.7,16.1,27.73,NNW,338,2.7,2.9,48,0.00,,,0.04,WSDL version 420,2013-02-16 19:32:00,
2013-02-16 14:37:00,33.4,15.8,27.73,NW,321,3.0,3.4,48,0.00,,,0.04,WSDL version 420,2013-02-16 19:37:00,
2013-02-16 14:42:00,33.3,15.6,27.73,NNW,345,2.2,3.4,48,0.00,,,0.04,WSDL version 420,2013-02-16 19:42:00,
2013-02-16 14:47:00,33.6,15.8,27.73,North,360,3.8,4.3,48,0.00,,,0.04,WSDL version 420,2013-02-16 19:47:00,
2013-02-16 14:52:00,33.1,15.2,27.73,NW,308,2.4,4.3,47,0.00,,,0.04,WSDL version 420,2013-02-16 19:52:00,
2013-02-16 14:57:00,33.5,15.4,27.73,NNW,338,2.0,4.0,47,0.00,,,0.04,WSDL version 420,2013-02-16 19:57:00,
2013-02-16 15:02:00,34.3,16.1,27.73,NNW,330,2.2,3.4,47,0.00,,,0.04,WSDL version 420,2013-02-16 20:02:00,
2013-02-16 15:07:00,34.3,16.0,27.73,NNW,347,3.4,4.3,46,0.00,,,0.04,WSDL version 420,2013-02-16 20:07:00,
2013-02-16 15:12:00,33.3,14.5,27.73,NNW,343,3.1,4.3,46,0.00,,,0.04,WSDL version 420,2013-02-16 20:12:00,
2013-02-16 15:17:00,32.8,13.9,27.73,NNW,345,2.3,4.3,45,0.00,,,0.04,WSDL version 420,2013-02-16 20:17:00,
2013-02-16 15:22:00,32.5,13.6,27.73,NW,308,3.0,4.0,45,0.00,,,0.04,WSDL version 420,2013-02-16 20:22:00,
2013-02-16 15:27:00,32.5,13.6,27.73,NNW,338,3.1,4.0,45,0.00,,,0.04,WSDL version 420,2013-02-16 20:27:00,
2013-02-16 15:32:00,32.5,13.6,27.73,NNW,338,2.3,4.0,45,0.00,,,0.04,WSDL version 420,2013-02-16 20:32:00,
2013-02-16 15:37:00,32.5,13.6,27.73,NW,315,3.0,3.1,45,0.00,,,0.04,WSDL version 420,2013-02-16 20:37:00,
2013-02-16 15:42:00,32.6,13.6,27.73,NW,308,2.8,3.1,45,0.00,,,0.04,WSDL version 420,2013-02-16 20:42:00,
2013-02-16 15:47:00,33.0,13.7,27.73,NW,308,2.4,3.1,44,0.00,,,0.04,WSDL version 420,2013-02-16 20:47:00,
2013-02-16 15:52:00,32.9,13.4,27.73,NNW,338,2.9,3.6,44,0.00,,,0.04,WSDL version 420,2013-02-16 20:52:00,
2013-02-16 15:57:00,32.7,13.4,27.73,NNW,338,1.5,3.6,45,0.00,,,0.04,WSDL version 420,2013-02-16 20:57:00,
2013-02-16 16:02:00,32.7,13.7,27.73,NNW,338,2.5,3.4,45,0.00,,,0.04,WSDL version 420,2013-02-16 21:02:00,
2013-02-16 16:07:00,32.5,13.5,27.73,NW,320,3.9,4.7,45,0.00,,,0.04,WSDL version 420,2013-02-16 21:07:00,
2013-02-16 16:12:00,32.0,14.4,27.73,North,360,3.5,4.7,45,0.00,,,0.04,WSDL version 420,2013-02-16 21:12:00,
2013-02-16 16:17:00,31.5,14.6,27.73,North,353,2.7,4.9,45,0.00,,,0.04,WSDL version 420,2013-02-16 21:17:00,
2013-02-16 16:22:00,31.1,14.3,27.73,NW,326,3.5,4.9,45,0.00,,,0.04,WSDL version 420,2013-02-16 21:22:00,
2013-02-16 16:27:00,31.4,14.6,27.73,NNW,338,1.9,4.0,45,0.00,,,0.04,WSDL version 420,2013-02-16 21:27:00,
2013-02-16 16:32:00,31.6,14.8,27.73,ENE,68,2.0,3.6,45,0.00,,,0.04,WSDL version 420,2013-02-16 21:32:00,
2013-02-16 16:37:00,31.6,14.8,27.73,NNW,338,2.5,3.6,45,0.00,,,0.04,WSDL version 420,2013-02-16 21:37:00,
2013-02-16 16:42:00,31.5,14.6,27.73,NNW,338,2.2,3.6,45,0.00,,,0.04,WSDL version 420,2013-02-16 21:42:00,
2013-02-16 16:47:00,31.3,14.5,27.73,North,360,2.5,2.5,45,0.00,,,0.04,WSDL version 420,2013-02-16 21:47:00,
2013-02-16 16:52:00,31.5,14.6,27.73,NNW,338,1.6,2.9,45,0.00,,,0.04,WSDL version 420,2013-02-16 21:52:00,
2013-02-16 16:57:00,31.5,14.6,27.73,NW,304,1.6,3.1,45,0.00,,,0.04,WSDL version 420,2013-02-16 21:57:00,
2013-02-16 17:02:00,31.3,14.7,27.73,NNE,15,2.5,3.4,46,0.00,,,0.04,WSDL version 420,2013-02-16 22:02:00,
2013-02-16 17:07:00,31.0,14.9,27.73,North,354,1.8,3.4,47,0.00,,,0.04,WSDL version 420,2013-02-16 22:07:00,
2013-02-16 17:12:00,30.9,14.9,27.73,NNW,338,0.0,2.2,47,0.00,,,0.04,WSDL version 420,2013-02-16 22:12:00,
2013-02-16 17:17:00,31.0,15.1,27.73,NNE,23,1.8,2.0,47,0.00,,,0.04,WSDL version 420,2013-02-16 22:17:00,
2013-02-16 17:22:00,31.2,15.1,27.73,NNE,15,2.2,2.2,46,0.00,,,0.04,WSDL version 420,2013-02-16 22:22:00,
2013-02-16 17:27:00,30.9,14.5,27.73,NW,323,1.9,2.7,46,0.00,,,0.04,WSDL version 420,2013-02-16 22:27:00,
2013-02-16 17:32:00,30.4,13.6,27.73,NW,308,1.9,3.8,45,0.00,,,0.04,WSDL version 420,2013-02-16 22:32:00,
2013-02-16 17:37:00,29.9,13.6,27.73,NNW,338,3.4,4.7,46,0.00,,,0.04,WSDL version 420,2013-02-16 22:37:00,
2013-02-16 17:42:00,29.7,13.5,27.73,North,8,2.7,4.7,46,0.00,,,0.04,WSDL version 420,2013-02-16 22:42:00,
2013-02-16 17:47:00,29.7,13.4,27.73,NW,321,2.3,4.7,46,0.00,,,0.04,WSDL version 420,2013-02-16 22:47:00,
2013-02-16 17:52:00,29.8,13.5,27.73,North,360,1.3,2.7,46,0.00,,,0.04,WSDL version 420,2013-02-16 22:52:00,
2013-02-16 17:57:00,29.8,13.6,27.73,WNW,293,2.7,2.9,46,0.00,,,0.04,WSDL version 420,2013-02-16 22:57:00,
2013-02-16 18:02:00,29.8,13.6,27.73,North,11,2.4,3.4,46,0.00,,,0.04,WSDL version 420,2013-02-16 23:02:00,
2013-02-16 18:07:00,29.2,13.3,27.76,NNW,338,2.7,3.8,47,0.00,,,0.04,WSDL version 420,2013-02-16 23:07:00,
2013-02-16 18:12:00,28.7,12.9,27.76,NNW,338,2.8,4.0,47,0.00,,,0.04,WSDL version 420,2013-02-16 23:12:00,
2013-02-16 18:17:00,28.5,13.1,27.76,NNW,330,2.3,4.0,48,0.00,,,0.04,WSDL version 420,2013-02-16 23:17:00,
2013-02-16 18:22:00,28.3,13.0,27.76,North,360,1.3,4.0,48,0.00,,,0.04,WSDL version 420,2013-02-16 23:22:00,
2013-02-16 18:27:00,28.4,13.1,27.76,NNW,338,3.1,3.4,48,0.00,,,0.04,WSDL version 420,2013-02-16 23:27:00,
2013-02-16 18:32:00,27.7,13.0,27.76,North,349,2.7,7.6,51,0.00,,,0.04,WSDL version 420,2013-02-16 23:32:00,